TimeEDT,TemperatureF,Dew PointF,Humidity,Sea Level PressureIn,VisibilityMPH,Wind Direction,Wind SpeedMPH,Gust SpeedMPH,PrecipitationIn,Events,Conditions,WindDirDegrees,DateUTC
12:52 AM,55.9,48.0,75,30.34,10.0,ENE,8.1,-,N/A,,Clear,60,2013-10-10 04:52:00
1:52 AM,55.9,48.0,75,30.33,10.0,ENE,9.2,-,N/A,,Clear,60,2013-10-10 05:52:00
2:52 AM,57.0,48.0,72,30.31,10.0,ENE,11.5,-,N/A,,Clear,60,2013-10-10 06:52:00
3:52 AM,57.0,48.0,72,30.32,10.0,ENE,9.2,-,N/A,,Clear,60,2013-10-10 07:52:00
4:52 AM,55.9,48.9,77,30.30,10.0,ENE,9.2,-,N/A,,Clear,60,2013-10-10 08:52:00
5:52 AM,57.0,50.0,77,30.31,10.0,ENE,8.1,-,N/A,,Clear,70,2013-10-10 09:52:00
6:52 AM,57.0,51.1,81,30.30,10.0,ENE,6.9,-,N/A,,Clear,70,2013-10-10 10:52:00
7:52 AM,57.0,52.0,83,30.30,10.0,East,8.1,-,N/A,,Clear,80,2013-10-10 11:52:00
8:52 AM,57.9,53.1,84,30.30,10.0,ENE,11.5,-,N/A,,Clear,60,2013-10-10 12:52:00
9:52 AM,60.1,53.1,78,30.30,10.0,East,9.2,-,N/A,,Clear,80,2013-10-10 13:52:00
10:23 AM,60.8,53.6,77,30.29,10.0,East,10.4,-,N/A,,Mostly Cloudy,80,2013-10-10 14:23:00
10:52 AM,61.0,53.1,75,30.30,10.0,East,9.2,-,N/A,,Mostly Cloudy,90,2013-10-10 14:52:00
11:03 AM,60.8,53.6,77,30.29,10.0,ENE,11.5,-,N/A,,Mostly Cloudy,60,2013-10-10 15:03:00
11:52 AM,62.1,54.0,75,30.28,10.0,ENE,11.5,18.4,N/A,,Clear,70,2013-10-10 15:52:00
12:52 PM,61.0,54.0,78,30.26,10.0,ENE,11.5,-,N/A,,Clear,60,2013-10-10 16:52:00
1:52 PM,63.0,54.0,72,30.25,10.0,NE,11.5,-,N/A,,Clear,50,2013-10-10 17:52:00
2:52 PM,61.0,54.0,78,30.24,10.0,NE,10.4,-,N/A,,Partly Cloudy,50,2013-10-10 18:52:00
3:52 PM,61.0,55.0,81,30.22,10.0,NE,6.9,-,N/A,,Clear,50,2013-10-10 19:52:00
4:52 PM,60.1,55.0,83,30.22,10.0,NNE,6.9,-,N/A,,Partly Cloudy,30,2013-10-10 20:52:00
5:52 PM,59.0,55.0,87,30.20,10.0,NE,8.1,-,N/A,,Clear,40,2013-10-10 21:52:00
6:39 PM,59.0,55.4,88,30.19,10.0,NE,9.2,-,N/A,,Mostly Cloudy,50,2013-10-10 22:39:00
6:52 PM,59.0,55.0,87,30.20,10.0,NE,9.2,-,N/A,,Mostly Cloudy,50,2013-10-10 22:52:00
7:09 PM,59.0,55.4,88,30.19,10.0,NE,8.1,-,N/A,,Scattered Clouds,40,2013-10-10 23:09:00
7:52 PM,59.0,55.9,90,30.19,10.0,NE,8.1,-,N/A,,Partly Cloudy,40,2013-10-10 23:52:00
7:59 PM,59.0,55.4,88,30.18,10.0,NNE,8.1,-,N/A,,Partly Cloudy,30,2013-10-10 23:59:00
8:52 PM,59.0,55.9,90,30.18,10.0,NE,6.9,-,N/A,,Scattered Clouds,40,2013-10-11 00:52:00
8:59 PM,59.0,55.4,88,30.17,10.0,NE,9.2,-,N/A,,Mostly Cloudy,40,2013-10-11 00:59:00
9:52 PM,59.0,55.9,90,30.18,10.0,NE,9.2,-,N/A,,Overcast,40,2013-10-11 01:52:00
10:28 PM,59.0,55.4,88,30.17,10.0,NE,8.1,-,N/A,,Overcast,40,2013-10-11 02:28:00
10:52 PM,59.0,55.9,90,30.17,10.0,NE,8.1,-,N/A,,Mostly Cloudy,50,2013-10-11 02:52:00
11:52 PM,59.0,55.9,90,30.15,10.0,NE,9.2,-,N/A,,Mostly Cloudy,50,2013-10-11 03:52:00